[TLELIST] Archives

 

[list_settings.list_name] Current TLEs

January 7th 2009 PST

HST 1 20580U 90037B 09006.22217519 .00000330 00000-0 12713-4 0 2995 2 20580 028.4695 078.9162 0003402 022.5106 337.5637 15.00444770825505 ISS (ZARYA) 1 25544U 98067A 09006.19502380 .00012774 00000-0 99801-4 0 97 2 25544 051.6424 056.1274 0006956 164.2892 265.8311 15.72044230580475 CXO 1 25867U 99040B 08352.78682399 .00000000 00000-0 10000-3 0 2762 2 25867 064.6326 075.2428 7176269 277.0774 013.2252 00.37815303 4321 ____________________________________________________________________ These 2-Line ...Continue Reading

[list_settings.list_name] Current TLEs

January 6th 2009 PST

HST 1 20580U 90037B 09004.62578567 .00000308 00000-0 10987-4 0 2985 2 20580 028.4694 089.3263 0003408 004.2084 355.8534 15.00444065825269 ISS (ZARYA) 1 25544U 98067A 09004.55778390 .00012845 00000-0 10050-3 0 9985 2 25544 051.6424 064.5090 0007182 159.5699 358.7157 15.72000542580218 CXO 1 25867U 99040B 08352.78682399 .00000000 00000-0 10000-3 0 2762 2 25867 064.6326 075.2428 7176269 277.0774 013.2252 00.37815303 4321 ____________________________________________________________________ These 2-Line ...Continue Reading

[list_settings.list_name] Current TLEs

January 5th 2009 PST

HST 1 20580U 90037B 09003.56152565 .00000280 00000-0 88209-5 0 2974 2 20580 028.4691 096.2668 0003407 351.3343 008.7187 15.00443519825109 ISS (ZARYA) 1 25544U 98067A 09003.53754631 .00012077 00000-0 94903-4 0 9914 2 25544 051.6418 069.7310 0007068 156.2366 344.4755 15.71970216580052 CXO 1 25867U 99040B 08352.78682399 .00000000 00000-0 10000-3 0 2762 2 25867 064.6326 075.2428 7176269 277.0774 013.2252 00.37815303 4321 ____________________________________________________________________ These 2-Line ...Continue Reading

[list_settings.list_name] Current TLEs

January 4th 2009 PST

HST 1 20580U 90037B 09001.69906998 .00000271 00000-0 80874-5 0 2962 2 20580 028.4688 108.4140 0003438 329.8076 030.2315 15.00442985824820 ISS (ZARYA) 1 25544U 98067A 09002.51880503 .00011101 00000-0 87723-4 0 9840 2 25544 051.6419 074.9463 0007140 152.9297 338.7911 15.71940890579892 CXO 1 25867U 99040B 08352.78682399 .00000000 00000-0 10000-3 0 2762 2 25867 064.6326 075.2428 7176269 277.0774 013.2252 00.37815303 4321 ____________________________________________________________________ These 2-Line ...Continue Reading

[list_settings.list_name] Current TLEs

January 3rd 2009 PST

HST 1 20580U 90037B 09001.69906998 .00000271 00000-0 80874-5 0 2962 2 20580 028.4688 108.4140 0003438 329.8076 030.2315 15.00442985824820 ISS (ZARYA) 1 25544U 98067A 09002.18275153 .00010130 00000-0 80505-4 0 9800 2 25544 051.6423 076.6670 0007368 151.7395 236.9633 15.71927844579843 CXO 1 25867U 99040B 08352.78682399 .00000000 00000-0 10000-3 0 2762 2 25867 064.6326 075.2428 7176269 277.0774 013.2252 00.37815303 4321 ____________________________________________________________________ These 2-Line ...Continue Reading

[list_settings.list_name] Current TLEs

January 2nd 2009 PST

HST 1 20580U 90037B 08366.56830557 .00000277 00000-0 85118-5 0 2959 2 20580 028.4686 115.7952 0003482 316.1615 043.8698 15.00442826824656 ISS (ZARYA) 1 25544U 98067A 08366.55888889 .00009503 00000-0 75934-4 0 9700 2 25544 051.6418 084.9793 0007443 145.9707 047.2384 15.71890758579581 CXO 1 25867U 99040B 08352.78682399 .00000000 00000-0 10000-3 0 2762 2 25867 064.6326 075.2428 7176269 277.0774 013.2252 00.37815303 4321 ____________________________________________________________________ These 2-Line ...Continue Reading

[list_settings.list_name] Current TLEs

January 1st 2009 PST

HST 1 20580U 90037B 08364.77236605 .00000322 00000-0 12029-4 0 2944 2 20580 028.4685 127.5088 0003530 296.8529 063.1700 15.00442643824384 ISS (ZARYA) 1 25544U 98067A 08365.52886502 .00009406 00000-0 75271-4 0 9634 2 25544 051.6421 090.2518 0007423 141.9705 338.6469 15.71869535579425 CXO 1 25867U 99040B 08352.78682399 .00000000 00000-0 10000-3 0 2762 2 25867 064.6326 075.2428 7176269 277.0774 013.2252 00.37815303 4321 ____________________________________________________________________ These 2-Line ...Continue Reading

[list_settings.list_name] Current TLEs

December 31st 2008 PST

HST 1 20580U 90037B 08364.77236605 .00000322 00000-0 12029-4 0 2944 2 20580 028.4685 127.5088 0003530 296.8529 063.1700 15.00442643824384 ISS (ZARYA) 1 25544U 98067A 08365.13880706 .00009593 00000-0 76693-4 0 9604 2 25544 051.6427 092.2483 0007429 141.2307 290.6761 15.71862694579365 CXO 1 25867U 99040B 08352.78682399 .00000000 00000-0 10000-3 0 2762 2 25867 064.6326 075.2428 7176269 277.0774 013.2252 00.37815303 4321 ____________________________________________________________________ These 2-Line ...Continue Reading

[list_settings.list_name] Current TLEs

December 30th 2008 PST

HST 1 20580U 90037B 08363.57507355 .00000307 00000-0 10892-4 0 2932 2 20580 028.4685 135.3199 0003648 283.7257 076.2921 15.00442136824205 ISS (ZARYA) 1 25544U 98067A 08363.57016204 .00010087 00000-0 80500-4 0 9493 2 25544 051.6418 100.2769 0007552 136.2915 053.2347 15.71832119579113 CXO 1 25867U 99040B 08352.78682399 .00000000 00000-0 10000-3 0 2762 2 25867 064.6326 075.2428 7176269 277.0774 013.2252 00.37815303 4321 ____________________________________________________________________ These 2-Line ...Continue Reading

[list_settings.list_name] Current TLEs

December 29th 2008 PST

HST 1 20580U 90037B 08361.84565102 .00000314 00000-0 11383-4 0 2927 2 20580 028.4685 146.5996 0003668 265.4533 094.5636 15.00441675823943 ISS (ZARYA) 1 25544U 98067A 08361.52062318 .00011219 00000-0 89152-4 0 9369 2 25544 051.6417 110.7667 0007680 130.3323 334.0421 15.71790900578792 CXO 1 25867U 99040B 08352.78682399 .00000000 00000-0 10000-3 0 2762 2 25867 064.6326 075.2428 7176269 277.0774 013.2252 00.37815303 4321 ____________________________________________________________________ These 2-Line ...Continue Reading
  • This mailing list is a public mailing list - anyone may join or leave, at any time.
  • This mailing list is announce-only.

International Space Station (ISS) / Hubble Space Telescope (HST) / Chandra X-Ray Observatory Orbital Data via EMAIL

Privacy Policy:

Private list